Regional Weather Roundup
Issued by NWS

Home | Current Version | Previous Version | Text Only | Print | Product List | Glossary Off
Versions: 1 2 3 4 5 6 7 8 9 10 11 12 13 14 15 16 17 18 19 20 21 22 23 24 25 26 27 28 29 30 31 32 33 34 35 36 37 38 39 40 41 42 43 44 45 46 47 48 49 50

000
ASUS43 KMKX 240121
RWRWI

WISCONSIN REGIONAL WEATHER ROUNDUP
NATIONAL WEATHER SERVICE MILWAUKEE/SULLIVAN WI
800 PM CDT WED MAY 23 2018

NOTE: "FAIR" INDICATES FEW OR NO CLOUDS BELOW 12,000 FEET WITH NO
SIGNIFICANT WEATHER AND/OR OBSTRUCTIONS TO VISIBILITY.

WIZ001-002-006>008-014>016-023>028-240200-
NORTHWEST WISCONSIN

CITY           SKY/WX    TMP DP  RH WIND       PRES   REMARKS
SUPERIOR ARPT  FAIR      53  46  75 NE5       30.08R
ASHLAND        FAIR      63  55  75 CALM      30.09S
HAYWARD        FAIR      75  61  61 SE5       30.09F
SIREN          FAIR      76  58  52 CALM      30.08S
CUMBERLAND     FAIR      72  57  60 S3        30.10S
RICE LAKE      FAIR      75  58  54 S3        30.10S
CHETEK         FAIR      74  60  61 CALM      30.09S
LADYSMITH      FAIR      75  60  60 SE3       30.13S
EAU CLAIRE     FAIR      77  62  59 S8        30.08S
MENOMONIE      FAIR      76  60  58 SE6       30.08S
NEW RICHMOND   FAIR      77  58  52 SE6       30.07F
OSCEOLA        FAIR      76  59  56 SE5       30.09S
$$

WIZ003>005-009-010-017-018-240200-
NORTH CENTRAL WISCONSIN

CITY           SKY/WX    TMP DP  RH WIND       PRES   REMARKS
MANITOWISH WTR FAIR      72  57  58 CALM      30.12R
ARBOR VITAE    FAIR      72  59  62 CALM      30.12S
WOODRUFF       FAIR      72  59  62 CALM      30.12S
RHINELANDER    NOT AVBL
EAGLE RIVER    FAIR      73  52  48 CALM      30.11S
LAND O LAKES   FAIR      70  54  56 CALM      30.13S
PHILLIPS       FAIR      73  60  65 SW3       30.12S
TOMAHAWK       FAIR      71  58  64 CALM      30.14R
MEDFORD        FAIR      73  59  61 S5        30.13S
MERRILL        FAIR      73  60  63 SW5       30.13S
$$

WIZ029-030-035-036-043>047-240200-
CENTRAL WISCONSIN

CITY           SKY/WX    TMP DP  RH WIND       PRES   REMARKS
WAUSAU         FAIR      74  60  61 SW5       30.11S
MOSINEE        MOCLDY    72  63  73 S5        30.14S
MARSHFIELD     FAIR      73  61  65 SE6       30.12S
STEVENS POINT  FAIR      73  57  58 SW3       30.14S
WAUPACA        FAIR      75  59  58 CALM      30.13S
WAUTOMA        MOCLDY    75  64  68 S3        30.13S
WISC RAPIDS    NOT AVBL
CAMP DOUGLAS   PTCLDY    75  64  69 CALM      30.12S
$$

WIZ011>013-019>022-031-037>040-048>050-240200-
NORTHEAST WISCONSIN

CITY           SKY/WX    TMP DP  RH WIND       PRES   REMARKS
ANTIGO         FAIR      70  58  65 SW8       30.14S
SHAWANO        FAIR      76  58  53 S3        30.12R
OCONTO         FAIR      72  56  55 SE5       30.11S
STURGEON BAY   FAIR      66  55  67 S6        30.14S
GREEN BAY      FAIR      74  59  59 S5        30.13R
MANITOWOC      FAIR      64  55  72 S5        30.16R
APPLETON       MOCLDY    72  54  53 SE6       30.13S
CLINTONVILLE   FAIR      73  57  56 S5        30.12S
OSHKOSH        FAIR      72  60  66 CALM      30.13S
$$

WIZ032>034-041-042-053>061-240200-
SOUTHWEST WISCONSIN

CITY           SKY/WX    TMP DP  RH WIND       PRES   REMARKS
LA CROSSE      CLOUDY    78  63  59 S7        30.09S HX  80
SPARTA         FAIR      74  62  66 CALM      30.12S
VIROQUA        FAIR      74  63  69 S3        30.14S
BOSCOBEL       FAIR      78  61  55 CALM      30.12S HX  80
PRAIRIE DU CHI FAIR      77  61  57 E5        30.10S
PLATTEVILLE    FAIR      76  63  64 S3        30.14S
$$

WIZ056-057-062-063-064-067-068-240200-
SOUTH CENTRAL WISCONSIN

CITY           SKY/WX    TMP DP  RH WIND       PRES   REMARKS
REEDSBURG      FAIR      74  62  64 CALM      30.13R
BARABOO/DELLS  FAIR      74  60  60 CALM      30.13S
LONE ROCK      FAIR      76  62  62 S3        30.12S
MINERAL POINT  FAIR      75  61  60 CALM      30.16R
MADISON        FAIR      76  58  53 S5        30.13S
MIDDLETON      FAIR      76  59  55 S3        30.14S
WATERTOWN      FAIR      69  63  80 CALM      30.14R
MONROE         FAIR      73  55  53 S5        30.15R
JANESVILLE     PTCLDY    73  61  64 VRB6      30.14S
$$

WIZ051-052-058>065-066-070>072-240200-
SOUTHEAST WISCONSIN

CITY           SKY/WX    TMP DP  RH WIND       PRES   REMARKS
MILWAUKEE      MOCLDY    66  52  60 SE8       30.16R
WAUKESHA       CLEAR     70  54  56 S8        30.16S
MILWAUKEE/TIMM CLEAR     73  41  31 SE7       30.15S
RACINE         FAIR      64  50  60 SE7       30.18S
BURLINGTON     FAIR      70  55  58 CALM      30.16R
KENOSHA        FAIR      66  50  56 SE6       30.16S
FOND DU LAC    FAIR      74  58  57 SE9       30.13S
SHEBOYGAN      FAIR      65  54  67 S5        30.16R
WEST BEND      FAIR      68  46  45 CALM      30.16R
JUNEAU         FAIR      72  60  64 S5        30.15S
$$

LSZ147-162-240200-
LAKE SUPERIOR

STATION/POSITION TIME  TEMP    WIND        PRES    WAVE
                       AIR SEA DIR/SP/G            HT/PER
                 (UTC) (F)     (DEG/KT/KT) (MB)    (FT/S)
W MID LAKE BUOY  0050   41 36  120/  4/  4 1019.2S   0
DEVILS ISLAND    0100   60     130/  7/  8 1018.4F
SAXON HARBOR     0040   55      40/  1/  3 1018.3S
$$

LMZ867-665-643>646-240200-
LAKE MICHIGAN

STATION/POSITION TIME  TEMP    WIND        PRES    WAVE
                       AIR SEA DIR/SP/G            HT/PER
                 (UTC) (F)     (DEG/KT/KT) (MB)    (FT/S)
N MID LAKE BUOY  0100   40 38  190/ 10/ 12 1020.3
NORTHPORT PIER   0040   60     170/  3/  5 1019.6S
KEWAUNEE LAKESHO 0100   58     170/  8/  9 1019.8
SHEBOYGAN LAKESH 0100   61     190/  9/ 10 1020.9R
PORT WASHINGTON  0040   58     180/  3/  5 1022.0S
ATWATER BUOY     0037   54 51  180/ 10/ 12 1021.0F   1
MILWAUKEE LAKESH 0100   58     160/  9/ 10   N/A
S MID LAKE BUOY  0050   46 39   80/  4/  6 1022.2S   0
KENOSHA   LAKESH 0100   59                 1021.3
$$

TC  - TEMPERATURE IN CELSIUS
VSB - VISIBILITY IN STATUTE MILES
WCI - WIND CHILL INDEX
HX  - HEAT INDEX





USA.gov is the U.S. government's official web portal to all federal, state and local government web resources and services.